Time,TemperatureF,DewpointF,PressureIn,WindDirection,WindDirectionDegrees,WindSpeedMPH,WindSpeedGustMPH,Humidity,HourlyPrecipIn,Conditions,Clouds,dailyrainin,SoftwareType,DateUTC
2013-05-20 00:01:00,52.6,50.6,30.23,East,100,0.0,0.0,93,0.01,-RA,,0.00,WeatherDisplay:10.37,2013-05-20 04:01:00,
2013-05-20 00:02:00,53.3,51.3,30.23,East,100,0.0,0.0,93,0.01,-RA,,0.00,WeatherDisplay:10.37,2013-05-20 04:02:00,
2013-05-20 00:03:00,52.9,50.9,30.23,East,100,0.0,0.0,93,0.01,-RA,,0.00,WeatherDisplay:10.37,2013-05-20 04:03:00,
2013-05-20 00:08:00,53.4,51.4,30.23,East,100,0.0,0.0,93,0.01,-RA,,0.00,WeatherDisplay:10.37,2013-05-20 04:08:00,
2013-05-20 00:13:00,53.1,53.1,30.20,East,100,0.0,0.0,100,0.01,-RA,,0.00,WeatherDisplay:10.37,2013-05-20 04:13:00,
2013-05-20 00:18:00,52.7,52.7,30.20,East,100,1.1,0.0,100,0.01,-RA,,0.01,WeatherDisplay:10.37,2013-05-20 04:18:00,
2013-05-20 00:23:00,52.6,52.6,30.20,East,100,0.0,0.0,100,0.01,-RA,,0.01,WeatherDisplay:10.37,2013-05-20 04:23:00,
2013-05-20 00:28:00,52.7,52.7,30.20,East,100,1.1,1.1,100,0.01,-RA,,0.01,WeatherDisplay:10.37,2013-05-20 04:28:00,
2013-05-20 00:33:00,52.2,52.2,30.20,East,100,0.0,0.0,100,0.01,-RA,,0.01,WeatherDisplay:10.37,2013-05-20 04:33:00,
2013-05-20 00:38:00,51.9,51.9,30.20,East,100,0.0,0.0,100,0.01,-RA,,0.01,WeatherDisplay:10.37,2013-05-20 04:38:00,
2013-05-20 00:43:00,51.9,51.9,30.20,East,100,0.0,0.0,100,0.01,-RA,,0.01,WeatherDisplay:10.37,2013-05-20 04:43:00,
2013-05-20 00:48:00,51.8,51.8,30.20,East,100,1.0,1.0,100,0.01,-RA,,0.01,WeatherDisplay:10.37,2013-05-20 04:48:00,
2013-05-20 00:53:00,51.6,51.6,30.20,East,100,0.0,0.0,100,0.01,-RA,,0.01,WeatherDisplay:10.37,2013-05-20 04:53:00,
2013-05-20 00:58:00,51.1,51.1,30.20,East,100,0.0,0.0,100,0.01,-RA,,0.01,WeatherDisplay:10.37,2013-05-20 04:58:00,
2013-05-20 01:03:00,51.1,51.1,30.20,East,100,0.0,0.0,100,0.01,-RA,,0.01,WeatherDisplay:10.37,2013-05-20 05:03:00,
2013-05-20 01:08:00,51.2,51.2,30.20,East,100,0.0,0.0,100,0.01,-RA,,0.01,WeatherDisplay:10.37,2013-05-20 05:08:00,
2013-05-20 01:13:00,51.1,51.1,30.18,East,100,0.0,0.0,100,0.01,-RA,,0.01,WeatherDisplay:10.37,2013-05-20 05:13:00,
2013-05-20 01:18:00,50.9,50.9,30.18,East,100,0.0,0.0,100,0.00,-RA,,0.01,WeatherDisplay:10.37,2013-05-20 05:18:00,
2013-05-20 01:23:00,51.0,51.0,30.18,East,100,0.0,0.0,100,0.00,-RA,,0.01,WeatherDisplay:10.37,2013-05-20 05:23:00,
2013-05-20 01:28:00,50.8,50.8,30.18,East,100,0.0,0.0,100,0.00,-RA,,0.01,WeatherDisplay:10.37,2013-05-20 05:28:00,
2013-05-20 01:33:00,50.6,50.6,30.18,East,100,0.0,0.0,100,0.00,-RA,,0.01,WeatherDisplay:10.37,2013-05-20 05:33:00,
2013-05-20 01:38:00,50.6,50.6,30.18,East,100,0.0,0.0,100,0.01,-RA,,0.02,WeatherDisplay:10.37,2013-05-20 05:38:00,
2013-05-20 01:43:00,50.6,50.6,30.18,East,100,0.0,0.0,100,0.01,-RA,,0.02,WeatherDisplay:10.37,2013-05-20 05:43:00,
2013-05-20 01:48:00,50.7,50.7,30.18,East,100,1.1,1.1,100,0.01,-RA,,0.02,WeatherDisplay:10.37,2013-05-20 05:48:00,
2013-05-20 01:53:00,50.7,50.7,30.18,East,100,0.0,0.0,100,0.01,-RA,,0.02,WeatherDisplay:10.37,2013-05-20 05:53:00,
2013-05-20 01:58:00,51.2,51.2,30.18,East,100,0.0,0.0,100,0.01,-RA,,0.02,WeatherDisplay:10.37,2013-05-20 05:58:00,
2013-05-20 02:03:00,51.2,51.2,30.18,East,100,0.0,0.0,100,0.01,-RA,,0.02,WeatherDisplay:10.37,2013-05-20 06:03:00,
2013-05-20 02:08:00,51.4,51.4,30.18,East,100,0.0,0.0,100,0.01,-RA,,0.02,WeatherDisplay:10.37,2013-05-20 06:08:00,
2013-05-20 02:13:00,51.0,51.0,30.15,East,100,0.0,0.0,100,0.01,OVC,,0.02,WeatherDisplay:10.37,2013-05-20 06:13:00,
2013-05-20 02:18:00,51.4,51.4,30.15,East,100,0.0,0.0,100,0.01,OVC,,0.02,WeatherDisplay:10.37,2013-05-20 06:18:00,
2013-05-20 02:23:00,51.0,51.0,30.15,East,100,0.0,0.0,100,0.01,OVC,,0.02,WeatherDisplay:10.37,2013-05-20 06:23:00,
2013-05-20 02:28:00,51.6,51.6,30.15,East,100,0.0,0.0,100,0.01,OVC,,0.02,WeatherDisplay:10.37,2013-05-20 06:28:00,
2013-05-20 02:33:00,51.1,51.1,30.15,East,100,0.0,0.0,100,0.01,OVC,,0.02,WeatherDisplay:10.37,2013-05-20 06:33:00,
2013-05-20 02:38:00,51.0,51.0,30.15,East,100,0.0,0.0,100,0.00,OVC,,0.02,WeatherDisplay:10.37,2013-05-20 06:38:00,
2013-05-20 02:43:00,51.2,51.2,30.15,East,100,0.0,0.0,100,0.00,OVC,,0.02,WeatherDisplay:10.37,2013-05-20 06:43:00,
2013-05-20 02:48:00,51.1,51.1,30.15,East,100,0.0,0.0,100,0.00,OVC,,0.02,WeatherDisplay:10.37,2013-05-20 06:48:00,
2013-05-20 02:53:00,51.3,51.3,30.12,East,100,0.0,0.0,100,0.00,OVC,,0.02,WeatherDisplay:10.37,2013-05-20 06:53:00,
2013-05-20 02:58:00,51.0,51.0,30.12,East,100,0.0,0.0,100,0.00,OVC,,0.02,WeatherDisplay:10.37,2013-05-20 06:58:00,
2013-05-20 03:03:00,50.8,50.8,30.12,East,100,0.0,0.0,100,0.00,OVC,,0.02,WeatherDisplay:10.37,2013-05-20 07:03:00,
2013-05-20 03:08:00,51.3,51.3,30.12,East,100,0.0,0.0,100,0.00,OVC,,0.02,WeatherDisplay:10.37,2013-05-20 07:08:00,
2013-05-20 03:13:00,51.1,51.1,30.11,East,100,0.0,0.0,100,0.00,OVC,,0.02,WeatherDisplay:10.37,2013-05-20 07:13:00,
2013-05-20 03:18:00,50.7,50.7,30.11,East,100,0.0,0.0,100,0.00,OVC,,0.02,WeatherDisplay:10.37,2013-05-20 07:18:00,
2013-05-20 03:23:00,50.8,50.8,30.11,East,100,0.0,0.0,100,0.00,OVC,,0.02,WeatherDisplay:10.37,2013-05-20 07:23:00,
2013-05-20 03:28:00,50.8,50.8,30.11,East,100,0.0,0.0,100,0.00,OVC,,0.02,WeatherDisplay:10.37,2013-05-20 07:28:00,
2013-05-20 03:33:00,50.8,50.8,30.11,East,100,0.0,0.0,100,0.01,RA,,0.03,WeatherDisplay:10.37,2013-05-20 07:33:00,
2013-05-20 03:38:00,50.7,50.7,30.11,East,100,0.0,0.0,100,0.01,OVC,,0.03,WeatherDisplay:10.37,2013-05-20 07:38:00,
2013-05-20 03:43:00,50.7,50.7,30.11,East,100,0.0,0.0,100,0.01,OVC,,0.03,WeatherDisplay:10.37,2013-05-20 07:43:00,
2013-05-20 03:48:00,50.8,50.8,30.11,East,100,0.0,0.0,100,0.01,OVC,,0.03,WeatherDisplay:10.37,2013-05-20 07:48:00,
2013-05-20 03:53:00,50.9,50.9,30.11,East,100,0.0,0.0,100,0.01,OVC,,0.03,WeatherDisplay:10.37,2013-05-20 07:53:00,
2013-05-20 03:58:00,51.1,51.1,30.11,East,100,0.0,0.0,100,0.01,OVC,,0.03,WeatherDisplay:10.37,2013-05-20 07:58:00,
2013-05-20 04:03:00,51.1,51.1,30.11,East,100,0.0,0.0,100,0.01,OVC,,0.03,WeatherDisplay:10.37,2013-05-20 08:03:00,
2013-05-20 04:08:00,50.7,50.7,30.11,East,100,0.0,0.0,100,0.01,OVC,,0.03,WeatherDisplay:10.37,2013-05-20 08:08:00,
2013-05-20 04:13:00,50.7,50.7,30.10,East,100,0.0,0.0,100,0.01,OVC,,0.03,WeatherDisplay:10.37,2013-05-20 08:13:00,
2013-05-20 04:18:00,50.8,50.8,30.10,East,100,0.0,0.0,100,0.01,OVC,,0.03,WeatherDisplay:10.37,2013-05-20 08:18:00,
2013-05-20 04:23:00,50.6,50.6,30.10,East,100,0.0,0.0,100,0.01,OVC,,0.03,WeatherDisplay:10.37,2013-05-20 08:23:00,
2013-05-20 04:28:00,51.2,51.2,30.10,East,100,0.0,0.0,100,0.01,OVC,,0.03,WeatherDisplay:10.37,2013-05-20 08:28:00,
2013-05-20 04:33:00,50.7,50.7,30.10,East,100,0.0,0.0,100,0.00,OVC,,0.03,WeatherDisplay:10.37,2013-05-20 08:33:00,
2013-05-20 04:38:00,50.6,50.6,30.10,East,100,0.0,0.0,100,0.00,OVC,,0.03,WeatherDisplay:10.37,2013-05-20 08:38:00,
2013-05-20 04:43:00,50.6,50.6,30.10,East,100,0.0,0.0,100,0.00,OVC,,0.03,WeatherDisplay:10.37,2013-05-20 08:43:00,
2013-05-20 04:48:00,50.7,50.7,30.10,East,100,0.0,0.0,100,0.00,OVC,,0.03,WeatherDisplay:10.37,2013-05-20 08:48:00,
2013-05-20 04:53:00,50.7,50.7,30.10,East,100,0.0,0.0,100,0.00,OVC,,0.03,WeatherDisplay:10.37,2013-05-20 08:53:00,
2013-05-20 04:58:00,50.7,50.7,30.10,East,100,0.0,0.0,100,0.00,OVC,,0.03,WeatherDisplay:10.37,2013-05-20 08:58:00,
2013-05-20 05:03:00,50.6,50.6,30.10,East,100,0.0,0.0,100,0.00,OVC,,0.03,WeatherDisplay:10.37,2013-05-20 09:03:00,
2013-05-20 05:08:00,51.4,51.4,30.10,East,100,0.0,0.0,100,0.00,OVC,,0.03,WeatherDisplay:10.37,2013-05-20 09:08:00,
2013-05-20 05:13:00,51.0,51.0,30.07,East,100,0.0,0.0,100,0.00,OVC,,0.03,WeatherDisplay:10.37,2013-05-20 09:13:00,
2013-05-20 05:18:00,50.9,50.9,30.07,East,100,0.0,0.0,100,0.00,OVC,,0.03,WeatherDisplay:10.37,2013-05-20 09:18:00,
2013-05-20 05:23:00,50.9,50.9,30.07,East,100,1.1,0.0,100,0.00,OVC,,0.03,WeatherDisplay:10.37,2013-05-20 09:23:00,
2013-05-20 05:28:00,51.0,51.0,30.07,East,100,0.0,0.0,100,0.00,OVC,,0.03,WeatherDisplay:10.37,2013-05-20 09:28:00,
2013-05-20 05:33:00,50.8,50.8,30.07,East,100,0.0,0.0,100,0.00,OVC,,0.03,WeatherDisplay:10.37,2013-05-20 09:33:00,
2013-05-20 05:38:00,51.0,51.0,30.07,East,100,0.0,0.0,100,0.00,OVC,,0.03,WeatherDisplay:10.37,2013-05-20 09:38:00,
2013-05-20 05:43:00,51.1,51.1,30.07,East,100,0.0,0.0,100,0.01,RA,,0.04,WeatherDisplay:10.37,2013-05-20 09:43:00,
2013-05-20 05:48:00,51.6,51.6,30.07,East,100,0.0,0.0,100,0.01,OVC,,0.04,WeatherDisplay:10.37,2013-05-20 09:48:00,
2013-05-20 05:53:00,51.3,51.3,30.05,East,100,0.0,0.0,100,0.01,OVC,,0.04,WeatherDisplay:10.37,2013-05-20 09:53:00,
2013-05-20 05:58:00,51.2,51.2,30.05,East,100,0.0,0.0,100,0.01,OVC,,0.04,WeatherDisplay:10.37,2013-05-20 09:58:00,
2013-05-20 06:03:00,51.2,51.2,30.05,East,100,0.0,0.0,100,0.01,OVC,,0.04,WeatherDisplay:10.37,2013-05-20 10:03:00,
2013-05-20 06:08:00,51.0,51.0,30.05,East,100,0.0,0.0,100,0.01,OVC,,0.04,WeatherDisplay:10.37,2013-05-20 10:08:00,
2013-05-20 06:13:00,51.1,51.1,30.04,East,100,0.0,0.0,100,0.01,OVC,,0.04,WeatherDisplay:10.37,2013-05-20 10:13:00,
2013-05-20 06:18:00,51.0,51.0,30.04,East,100,0.0,0.0,100,0.01,OVC,,0.04,WeatherDisplay:10.37,2013-05-20 10:18:00,
2013-05-20 06:23:00,51.2,51.2,30.04,East,100,0.0,0.0,100,0.01,OVC,,0.04,WeatherDisplay:10.37,2013-05-20 10:23:00,
2013-05-20 06:28:00,51.2,51.2,30.04,East,100,0.0,0.0,100,0.01,OVC,,0.04,WeatherDisplay:10.37,2013-05-20 10:28:00,
2013-05-20 06:33:00,51.3,51.3,30.05,East,100,0.0,0.0,100,0.01,OVC,,0.04,WeatherDisplay:10.37,2013-05-20 10:33:00,
2013-05-20 06:38:00,51.1,51.1,30.05,East,100,0.0,0.0,100,0.01,OVC,,0.04,WeatherDisplay:10.37,2013-05-20 10:38:00,
2013-05-20 06:43:00,51.3,51.3,30.05,East,100,0.0,0.0,100,0.00,OVC,,0.04,WeatherDisplay:10.37,2013-05-20 10:43:00,
2013-05-20 06:48:00,51.3,51.3,30.05,East,100,0.0,0.0,100,0.00,OVC,,0.04,WeatherDisplay:10.37,2013-05-20 10:48:00,
2013-05-20 06:53:00,51.7,51.7,30.05,East,100,0.0,0.0,100,0.00,OVC,,0.04,WeatherDisplay:10.37,2013-05-20 10:53:00,
2013-05-20 06:58:00,51.4,51.4,30.05,East,100,0.0,0.0,100,0.00,OVC,,0.04,WeatherDisplay:10.37,2013-05-20 10:58:00,
2013-05-20 07:03:00,51.6,51.6,30.05,East,100,0.0,0.0,100,0.00,OVC,,0.04,WeatherDisplay:10.37,2013-05-20 11:03:00,
2013-05-20 07:08:00,51.9,51.9,30.05,East,100,0.0,0.0,100,0.00,OVC,,0.04,WeatherDisplay:10.37,2013-05-20 11:08:00,
2013-05-20 07:13:00,52.5,52.5,30.04,East,100,0.0,0.0,100,0.00,OVC,,0.04,WeatherDisplay:10.37,2013-05-20 11:13:00,
2013-05-20 07:18:00,52.3,52.3,30.04,East,100,0.0,0.0,100,0.00,OVC,,0.04,WeatherDisplay:10.37,2013-05-20 11:18:00,
2013-05-20 07:23:00,52.3,52.3,30.04,East,100,0.0,0.0,100,0.00,OVC,,0.04,WeatherDisplay:10.37,2013-05-20 11:23:00,
2013-05-20 07:28:00,52.5,52.5,30.04,East,100,0.0,0.0,100,0.00,OVC,,0.04,WeatherDisplay:10.37,2013-05-20 11:28:00,
2013-05-20 07:33:00,52.5,50.5,30.04,East,100,0.0,0.0,93,0.00,OVC,,0.04,WeatherDisplay:10.37,2013-05-20 11:33:00,
2013-05-20 07:38:00,53.1,51.1,30.04,East,100,0.0,0.0,93,0.00,OVC,,0.04,WeatherDisplay:10.37,2013-05-20 11:38:00,
2013-05-20 07:43:00,52.8,50.8,30.04,East,100,0.0,0.0,93,0.00,OVC,,0.04,WeatherDisplay:10.37,2013-05-20 11:43:00,
2013-05-20 07:48:00,52.6,50.6,30.04,East,100,0.0,0.0,93,0.00,OVC,,0.04,WeatherDisplay:10.37,2013-05-20 11:48:00,
2013-05-20 07:53:00,53.7,51.7,30.04,East,100,0.0,0.0,93,0.00,OVC,,0.04,WeatherDisplay:10.37,2013-05-20 11:53:00,
2013-05-20 07:58:00,53.6,51.6,30.04,East,100,0.0,0.0,93,0.00,OVC,,0.04,WeatherDisplay:10.37,2013-05-20 11:58:00,
2013-05-20 08:03:00,53.6,51.6,30.04,East,100,0.0,0.0,93,0.00,OVC,,0.04,WeatherDisplay:10.37,2013-05-20 12:03:00,
2013-05-20 08:08:00,53.8,51.8,30.04,East,100,0.0,0.0,93,0.00,OVC,,0.04,WeatherDisplay:10.37,2013-05-20 12:08:00,
2013-05-20 08:13:00,53.6,52.5,30.04,East,100,0.0,0.0,96,0.00,OVC,,0.04,WeatherDisplay:10.37,2013-05-20 12:13:00,
2013-05-20 08:18:00,53.7,52.6,30.04,East,100,0.0,0.0,96,0.00,OVC,,0.04,WeatherDisplay:10.37,2013-05-20 12:18:00,
2013-05-20 08:23:00,55.0,53.9,30.04,East,100,0.0,0.0,96,0.00,OVC,,0.04,WeatherDisplay:10.37,2013-05-20 12:23:00,
2013-05-20 08:28:00,54.9,53.8,30.04,East,100,0.0,0.0,96,0.00,OVC,,0.04,WeatherDisplay:10.37,2013-05-20 12:28:00,
2013-05-20 08:33:00,54.6,53.5,30.04,East,100,0.0,0.0,96,0.00,OVC,,0.04,WeatherDisplay:10.37,2013-05-20 12:33:00,
2013-05-20 08:38:00,55.2,54.1,30.04,East,100,0.0,0.0,96,0.00,OVC,,0.04,WeatherDisplay:10.37,2013-05-20 12:38:00,
2013-05-20 08:43:00,55.7,54.6,30.04,East,100,0.0,0.0,96,0.00,OVC,,0.04,WeatherDisplay:10.37,2013-05-20 12:43:00,
2013-05-20 08:48:00,56.1,55.0,30.04,East,100,0.0,0.0,96,0.00,OVC,,0.04,WeatherDisplay:10.37,2013-05-20 12:48:00,
2013-05-20 08:53:00,56.2,54.2,30.04,East,100,0.0,0.0,93,0.00,OVC,,0.04,WeatherDisplay:10.37,2013-05-20 12:53:00,
2013-05-20 08:58:00,55.9,53.9,30.04,East,100,0.0,0.0,93,0.00,OVC,,0.04,WeatherDisplay:10.37,2013-05-20 12:58:00,
2013-05-20 09:03:00,56.3,54.3,30.04,East,100,0.0,0.0,93,0.00,OVC,,0.04,WeatherDisplay:10.37,2013-05-20 13:03:00,
2013-05-20 09:08:00,56.7,54.7,30.04,East,100,0.0,0.0,93,0.00,OVC,,0.04,WeatherDisplay:10.37,2013-05-20 13:08:00,
2013-05-20 09:13:00,57.7,53.5,30.03,East,100,0.0,0.0,86,0.00,OVC,,0.04,WeatherDisplay:10.37,2013-05-20 13:13:00,
2013-05-20 09:18:00,57.8,53.6,30.03,East,100,0.0,0.0,86,0.00,OVC,,0.04,WeatherDisplay:10.37,2013-05-20 13:18:00,
2013-05-20 09:23:00,58.4,54.2,30.03,East,100,0.0,0.0,86,0.00,OVC,,0.04,WeatherDisplay:10.37,2013-05-20 13:23:00,
2013-05-20 09:28:00,58.7,54.5,30.03,East,100,0.0,0.0,86,0.00,OVC,,0.04,WeatherDisplay:10.37,2013-05-20 13:28:00,
2013-05-20 09:33:00,59.7,55.5,30.03,East,100,0.0,0.0,86,0.00,OVC,,0.04,WeatherDisplay:10.37,2013-05-20 13:33:00,
2013-05-20 09:38:00,60.6,56.4,30.03,East,100,0.0,0.0,86,0.00,OVC,,0.04,WeatherDisplay:10.37,2013-05-20 13:38:00,
2013-05-20 09:43:00,60.7,56.5,30.03,East,100,0.0,0.0,86,0.00,OVC,,0.04,WeatherDisplay:10.37,2013-05-20 13:43:00,
2013-05-20 09:48:00,60.0,55.8,30.03,East,100,0.0,0.0,86,0.00,OVC,,0.04,WeatherDisplay:10.37,2013-05-20 13:48:00,
2013-05-20 09:53:00,60.9,55.4,30.02,East,100,0.0,0.0,82,0.00,OVC,,0.04,WeatherDisplay:10.37,2013-05-20 13:53:00,
2013-05-20 09:58:00,60.6,55.1,30.02,East,100,0.0,0.0,82,0.00,OVC,,0.04,WeatherDisplay:10.37,2013-05-20 13:58:00,
2013-05-20 10:03:00,60.3,54.8,30.02,East,100,0.0,0.0,82,0.00,OVC,,0.04,WeatherDisplay:10.37,2013-05-20 14:03:00,
2013-05-20 10:08:00,60.2,54.7,30.02,East,100,0.0,0.0,82,0.00,OVC,,0.04,WeatherDisplay:10.37,2013-05-20 14:08:00,
2013-05-20 10:13:00,61.3,55.1,30.03,East,100,0.0,0.0,80,0.00,OVC,,0.04,WeatherDisplay:10.37,2013-05-20 14:13:00,
2013-05-20 10:18:00,62.1,55.9,30.03,East,100,0.0,0.0,80,0.00,OVC,,0.04,WeatherDisplay:10.37,2013-05-20 14:18:00,
2013-05-20 10:23:00,62.4,56.1,30.03,East,100,0.0,0.0,80,0.00,OVC,,0.04,WeatherDisplay:10.37,2013-05-20 14:23:00,
2013-05-20 10:28:00,62.9,56.6,30.03,East,100,0.0,0.0,80,0.00,OVC,,0.04,WeatherDisplay:10.37,2013-05-20 14:28:00,
2013-05-20 10:33:00,62.8,56.5,30.03,East,100,0.0,0.0,80,0.00,OVC,,0.04,WeatherDisplay:10.37,2013-05-20 14:33:00,
2013-05-20 10:38:00,62.7,56.4,30.03,East,100,1.1,1.1,80,0.00,OVC,,0.04,WeatherDisplay:10.37,2013-05-20 14:38:00,
2013-05-20 10:43:00,63.1,56.8,30.03,ESE,103,1.1,0.0,80,0.00,OVC,,0.04,WeatherDisplay:10.37,2013-05-20 14:43:00,
2013-05-20 10:48:00,62.6,56.3,30.03,ESE,102,2.3,2.3,80,0.00,OVC,,0.04,WeatherDisplay:10.37,2013-05-20 14:48:00,
2013-05-20 10:53:00,63.6,57.3,30.03,East,100,2.3,2.3,80,0.00,OVC,,0.04,WeatherDisplay:10.37,2013-05-20 14:53:00,
2013-05-20 10:58:00,63.7,57.4,30.03,East,100,2.3,2.3,80,0.00,OVC,,0.04,WeatherDisplay:10.37,2013-05-20 14:58:00,
2013-05-20 11:03:00,64.7,55.8,30.02,SE,142,3.5,3.5,73,0.00,SCT,,0.04,WeatherDisplay:10.37,2013-05-20 15:03:00,
2013-05-20 11:08:00,65.8,56.9,30.02,SE,143,1.1,0.0,73,0.00,SCT,,0.04,WeatherDisplay:10.37,2013-05-20 15:08:00,
2013-05-20 11:13:00,65.8,56.9,30.02,SE,143,1.1,1.1,73,0.00,SCT,,0.04,WeatherDisplay:10.37,2013-05-20 15:13:00,
2013-05-20 11:18:00,65.8,56.9,30.02,SE,146,1.1,1.1,73,0.00,SCT,,0.04,WeatherDisplay:10.37,2013-05-20 15:18:00,
2013-05-20 11:23:00,65.7,56.8,30.02,SE,145,2.3,2.3,73,0.00,SCT,,0.04,WeatherDisplay:10.37,2013-05-20 15:23:00,
2013-05-20 11:28:00,65.6,56.7,30.02,SE,146,2.3,2.3,73,0.00,SCT,,0.04,WeatherDisplay:10.37,2013-05-20 15:28:00,
2013-05-20 11:33:00,65.4,56.5,30.02,SSE,148,2.3,2.3,73,0.00,SCT,,0.04,WeatherDisplay:10.37,2013-05-20 15:33:00,
2013-05-20 11:38:00,66.1,57.2,30.02,SSE,167,2.3,2.3,73,0.00,SCT,,0.04,WeatherDisplay:10.37,2013-05-20 15:38:00,
2013-05-20 11:43:00,66.3,57.4,30.02,SW,229,2.3,2.3,73,0.00,SCT,,0.04,WeatherDisplay:10.37,2013-05-20 15:43:00,
2013-05-20 11:48:00,67.3,58.3,30.02,SW,230,2.3,2.3,73,0.00,SCT,,0.04,WeatherDisplay:10.37,2013-05-20 15:48:00,
2013-05-20 11:53:00,67.4,58.4,30.02,SW,233,3.5,3.5,73,0.00,SCT,,0.04,WeatherDisplay:10.37,2013-05-20 15:53:00,
2013-05-20 11:58:00,67.1,58.2,30.02,WSW,240,3.5,3.5,73,0.00,SCT,,0.04,WeatherDisplay:10.37,2013-05-20 15:58:00,
2013-05-20 12:03:00,66.7,53.7,29.99,WSW,246,3.5,3.5,63,0.00,BKN,,0.04,WeatherDisplay:10.37,2013-05-20 16:03:00,
2013-05-20 12:08:00,66.8,53.8,29.99,West,260,2.0,2.0,63,0.00,BKN,,0.04,WeatherDisplay:10.37,2013-05-20 16:08:00,
2013-05-20 12:13:00,66.4,53.4,29.99,WNW,285,3.5,3.5,63,0.00,BKN,,0.04,WeatherDisplay:10.37,2013-05-20 16:13:00,
2013-05-20 12:18:00,66.8,53.8,29.99,WNW,286,3.5,3.5,63,0.00,BKN,,0.04,WeatherDisplay:10.37,2013-05-20 16:18:00,
2013-05-20 12:23:00,68.2,55.1,29.99,WNW,291,3.5,3.5,63,0.00,BKN,,0.04,WeatherDisplay:10.37,2013-05-20 16:23:00,
2013-05-20 12:28:00,66.8,53.8,29.99,WNW,294,3.5,3.5,63,0.00,BKN,,0.04,WeatherDisplay:10.37,2013-05-20 16:28:00,
2013-05-20 12:33:00,67.8,54.7,29.99,WNW,295,3.5,3.5,63,0.00,BKN,,0.04,WeatherDisplay:10.37,2013-05-20 16:33:00,
2013-05-20 12:38:00,68.8,55.7,29.99,WNW,295,3.5,3.5,63,0.00,BKN,,0.04,WeatherDisplay:10.37,2013-05-20 16:38:00,
2013-05-20 12:43:00,68.6,55.5,29.99,WNW,292,2.0,2.0,63,0.00,BKN,,0.04,WeatherDisplay:10.37,2013-05-20 16:43:00,
2013-05-20 12:48:00,69.6,56.4,29.99,WNW,289,3.5,3.5,63,0.00,BKN,,0.04,WeatherDisplay:10.37,2013-05-20 16:48:00,
2013-05-20 12:53:00,69.9,56.7,29.99,WNW,290,3.5,3.5,63,0.00,BKN,,0.04,WeatherDisplay:10.37,2013-05-20 16:53:00,
2013-05-20 12:58:00,69.0,55.9,29.99,WNW,293,3.5,3.5,63,0.00,BKN,,0.04,WeatherDisplay:10.37,2013-05-20 16:58:00,
2013-05-20 13:03:00,69.9,54.0,29.98,WNW,289,3.0,3.0,57,0.00,OVC,,0.04,WeatherDisplay:10.37,2013-05-20 17:03:00,
2013-05-20 13:08:00,70.6,54.6,29.98,SW,236,3.5,3.5,57,0.00,OVC,,0.04,WeatherDisplay:10.37,2013-05-20 17:08:00,
2013-05-20 13:13:00,69.5,53.6,29.98,WNW,296,3.5,3.5,57,0.00,OVC,,0.04,WeatherDisplay:10.37,2013-05-20 17:13:00,
2013-05-20 13:18:00,71.6,55.6,29.98,SW,223,2.3,2.3,57,0.00,OVC,,0.04,WeatherDisplay:10.37,2013-05-20 17:18:00,
2013-05-20 13:23:00,72.2,56.1,29.98,SW,232,2.3,2.3,57,0.00,OVC,,0.04,WeatherDisplay:10.37,2013-05-20 17:23:00,
2013-05-20 13:28:00,71.6,55.6,29.98,WNW,282,4.0,4.0,57,0.00,OVC,,0.04,WeatherDisplay:10.37,2013-05-20 17:28:00,
2013-05-20 13:33:00,71.7,55.7,29.98,WNW,287,3.5,3.5,57,0.00,OVC,,0.04,WeatherDisplay:10.37,2013-05-20 17:33:00,
2013-05-20 13:38:00,72.0,55.9,29.98,NW,309,5.0,5.0,57,0.00,OVC,,0.04,WeatherDisplay:10.37,2013-05-20 17:38:00,
2013-05-20 13:43:00,69.4,53.5,29.98,NW,307,5.8,5.8,57,0.00,OVC,,0.04,WeatherDisplay:10.37,2013-05-20 17:43:00,
2013-05-20 13:48:00,69.3,53.4,29.98,NW,307,3.5,3.5,57,0.00,OVC,,0.04,WeatherDisplay:10.37,2013-05-20 17:48:00,
2013-05-20 13:53:00,70.7,54.7,29.98,NW,307,3.5,3.5,57,0.00,OVC,,0.04,WeatherDisplay:10.37,2013-05-20 17:53:00,
2013-05-20 13:58:00,69.6,53.7,29.98,NW,308,3.5,3.5,57,0.00,OVC,,0.04,WeatherDisplay:10.37,2013-05-20 17:58:00,
2013-05-20 14:03:00,69.0,51.2,29.96,NW,308,3.5,3.5,53,0.00,BKN,,0.04,WeatherDisplay:10.37,2013-05-20 18:03:00,
2013-05-20 14:08:00,69.7,51.8,29.96,NW,308,3.5,3.5,53,0.00,BKN,,0.04,WeatherDisplay:10.37,2013-05-20 18:08:00,
2013-05-20 14:13:00,70.7,52.7,29.96,NW,308,2.3,2.3,53,0.00,BKN,,0.04,WeatherDisplay:10.37,2013-05-20 18:13:00,
2013-05-20 14:18:00,70.1,52.2,29.96,NW,308,3.5,3.5,53,0.00,BKN,,0.04,WeatherDisplay:10.37,2013-05-20 18:18:00,
2013-05-20 14:23:00,71.5,53.5,29.96,NW,308,4.0,4.0,53,0.00,BKN,,0.04,WeatherDisplay:10.37,2013-05-20 18:23:00,
2013-05-20 14:28:00,69.6,51.7,29.96,NW,308,2.3,2.3,53,0.00,BKN,,0.04,WeatherDisplay:10.37,2013-05-20 18:28:00,
2013-05-20 14:33:00,69.6,51.7,29.96,NW,307,1.1,1.1,53,0.00,BKN,,0.04,WeatherDisplay:10.37,2013-05-20 18:33:00,
2013-05-20 14:38:00,68.6,50.8,29.96,NW,308,2.3,2.3,53,0.00,BKN,,0.04,WeatherDisplay:10.37,2013-05-20 18:38:00,
2013-05-20 14:43:00,68.7,50.9,29.96,NW,308,2.3,2.3,53,0.00,BKN,,0.04,WeatherDisplay:10.37,2013-05-20 18:43:00,
2013-05-20 14:48:00,68.5,50.7,29.96,NW,308,2.3,2.3,53,0.00,BKN,,0.04,WeatherDisplay:10.37,2013-05-20 18:48:00,
2013-05-20 14:53:00,67.9,50.1,29.96,NW,308,2.3,2.3,53,0.00,BKN,,0.04,WeatherDisplay:10.37,2013-05-20 18:53:00,
2013-05-20 14:58:00,67.7,49.9,29.96,NW,308,2.3,2.3,53,0.00,BKN,,0.04,WeatherDisplay:10.37,2013-05-20 18:58:00,
2013-05-20 15:03:00,67.4,52.6,29.96,NW,308,2.3,2.3,59,0.00,OVC,,0.04,WeatherDisplay:10.37,2013-05-20 19:03:00,
2013-05-20 15:08:00,67.5,52.7,29.96,NW,308,0.0,0.0,59,0.00,OVC,,0.04,WeatherDisplay:10.37,2013-05-20 19:08:00,
2013-05-20 15:13:00,67.2,52.4,29.96,NW,308,0.0,0.0,59,0.00,OVC,,0.04,WeatherDisplay:10.37,2013-05-20 19:13:00,
2013-05-20 15:18:00,67.0,52.2,29.96,NW,308,0.0,0.0,59,0.00,OVC,,0.04,WeatherDisplay:10.37,2013-05-20 19:18:00,
2013-05-20 15:23:00,67.0,52.2,29.96,NW,307,2.3,2.3,59,0.00,OVC,,0.04,WeatherDisplay:10.37,2013-05-20 19:23:00,
2013-05-20 15:28:00,67.4,52.6,29.96,NW,308,2.3,2.3,59,0.00,OVC,,0.04,WeatherDisplay:10.37,2013-05-20 19:28:00,
2013-05-20 15:33:00,68.1,53.2,29.96,NW,308,3.0,3.0,59,0.00,OVC,,0.04,WeatherDisplay:10.37,2013-05-20 19:33:00,
2013-05-20 15:38:00,67.9,53.0,29.96,NW,308,2.0,2.0,59,0.00,OVC,,0.04,WeatherDisplay:10.37,2013-05-20 19:38:00,
2013-05-20 15:43:00,67.5,52.7,29.96,NW,308,3.5,3.5,59,0.00,OVC,,0.04,WeatherDisplay:10.37,2013-05-20 19:43:00,
2013-05-20 15:48:00,67.3,52.5,29.96,NW,308,2.3,2.3,59,0.00,OVC,,0.04,WeatherDisplay:10.37,2013-05-20 19:48:00,
2013-05-20 15:53:00,67.3,52.5,29.96,NW,308,2.3,0.0,59,0.00,OVC,,0.04,WeatherDisplay:10.37,2013-05-20 19:53:00,
2013-05-20 15:58:00,67.4,52.6,29.96,NW,308,0.0,0.0,59,0.00,OVC,,0.04,WeatherDisplay:10.37,2013-05-20 19:58:00,
2013-05-20 16:03:00,67.5,51.7,29.94,NW,308,0.0,0.0,57,0.00,BKN,,0.04,WeatherDisplay:10.37,2013-05-20 20:03:00,
2013-05-20 16:08:00,67.6,51.8,29.94,NW,308,1.0,1.0,57,0.00,BKN,,0.04,WeatherDisplay:10.37,2013-05-20 20:08:00,
2013-05-20 16:13:00,67.5,51.7,29.94,NW,308,2.3,2.3,57,0.00,BKN,,0.04,WeatherDisplay:10.37,2013-05-20 20:13:00,
2013-05-20 16:18:00,67.7,51.9,29.94,NW,308,1.1,0.0,57,0.00,BKN,,0.04,WeatherDisplay:10.37,2013-05-20 20:18:00,
2013-05-20 16:23:00,67.8,52.0,29.94,NW,308,3.5,3.5,57,0.00,BKN,,0.04,WeatherDisplay:10.37,2013-05-20 20:23:00,
2013-05-20 16:28:00,68.0,52.2,29.94,NW,308,2.3,2.3,57,0.00,BKN,,0.04,WeatherDisplay:10.37,2013-05-20 20:28:00,
2013-05-20 16:33:00,68.0,52.2,29.94,NW,308,3.5,3.5,57,0.00,BKN,,0.04,WeatherDisplay:10.37,2013-05-20 20:33:00,
2013-05-20 16:38:00,67.8,52.0,29.94,NW,319,3.5,3.5,57,0.00,BKN,,0.04,WeatherDisplay:10.37,2013-05-20 20:38:00,
2013-05-20 16:43:00,67.4,51.6,29.94,NW,320,3.5,3.5,57,0.00,BKN,,0.04,WeatherDisplay:10.37,2013-05-20 20:43:00,
2013-05-20 16:48:00,67.3,51.5,29.94,NW,320,2.3,2.3,57,0.00,BKN,,0.04,WeatherDisplay:10.37,2013-05-20 20:48:00,
2013-05-20 16:53:00,67.0,51.3,29.94,NW,320,2.3,2.3,57,0.00,BKN,,0.04,WeatherDisplay:10.37,2013-05-20 20:53:00,
2013-05-20 16:58:00,67.1,51.4,29.94,NW,320,2.3,0.0,57,0.00,BKN,,0.04,WeatherDisplay:10.37,2013-05-20 20:58:00,
2013-05-20 17:03:00,67.1,53.2,29.94,NW,320,3.5,3.5,61,0.00,OVC,,0.04,WeatherDisplay:10.37,2013-05-20 21:03:00,
2013-05-20 17:08:00,66.9,53.0,29.94,NW,320,1.1,1.1,61,0.00,OVC,,0.04,WeatherDisplay:10.37,2013-05-20 21:08:00,
2013-05-20 17:13:00,66.9,53.0,29.94,NW,320,1.1,1.1,61,0.00,OVC,,0.04,WeatherDisplay:10.37,2013-05-20 21:13:00,
2013-05-20 17:18:00,66.7,52.8,29.94,NW,320,2.3,2.3,61,0.00,OVC,,0.04,WeatherDisplay:10.37,2013-05-20 21:18:00,
2013-05-20 17:23:00,66.8,52.9,29.94,NW,320,1.1,0.0,61,0.00,OVC,,0.04,WeatherDisplay:10.37,2013-05-20 21:23:00,
2013-05-20 17:28:00,66.7,52.8,29.94,NW,320,1.1,1.1,61,0.00,OVC,,0.04,WeatherDisplay:10.37,2013-05-20 21:28:00,
2013-05-20 17:33:00,66.8,52.9,29.94,NW,320,0.0,0.0,61,0.00,OVC,,0.04,WeatherDisplay:10.37,2013-05-20 21:33:00,
2013-05-20 17:38:00,66.7,52.8,29.94,NW,320,0.0,0.0,61,0.00,OVC,,0.04,WeatherDisplay:10.37,2013-05-20 21:38:00,
2013-05-20 17:43:00,66.6,52.7,29.94,NW,320,0.0,0.0,61,0.00,OVC,,0.04,WeatherDisplay:10.37,2013-05-20 21:43:00,
2013-05-20 17:48:00,66.3,52.4,29.94,NW,320,0.0,0.0,61,0.00,OVC,,0.04,WeatherDisplay:10.37,2013-05-20 21:48:00,
2013-05-20 17:53:00,66.4,52.5,29.94,NW,320,1.1,1.1,61,0.00,OVC,,0.04,WeatherDisplay:10.37,2013-05-20 21:53:00,
2013-05-20 17:58:00,66.3,52.4,29.94,NW,320,1.1,0.0,61,0.00,OVC,,0.04,WeatherDisplay:10.37,2013-05-20 21:58:00,
2013-05-20 18:03:00,66.4,53.4,29.96,NW,320,0.0,0.0,63,0.00,OVC,,0.04,WeatherDisplay:10.37,2013-05-20 22:03:00,
2013-05-20 18:08:00,67.0,54.0,29.96,NW,320,1.1,1.1,63,0.00,OVC,,0.04,WeatherDisplay:10.37,2013-05-20 22:08:00,
2013-05-20 18:13:00,67.4,54.4,29.96,NW,320,0.0,0.0,63,0.00,OVC,,0.04,WeatherDisplay:10.37,2013-05-20 22:13:00,
2013-05-20 18:18:00,67.4,54.4,29.96,NW,320,0.0,0.0,63,0.00,OVC,,0.04,WeatherDisplay:10.37,2013-05-20 22:18:00,
2013-05-20 18:23:00,67.3,54.3,29.96,NW,320,0.0,0.0,63,0.00,OVC,,0.04,WeatherDisplay:10.37,2013-05-20 22:23:00,
2013-05-20 18:28:00,67.0,54.0,29.96,NW,320,1.1,0.0,63,0.00,OVC,,0.04,WeatherDisplay:10.37,2013-05-20 22:28:00,
2013-05-20 18:33:00,66.6,53.6,29.96,NW,320,1.1,1.1,63,0.00,OVC,,0.04,WeatherDisplay:10.37,2013-05-20 22:33:00,
2013-05-20 18:38:00,66.6,53.6,29.96,NW,320,0.0,0.0,63,0.00,OVC,,0.04,WeatherDisplay:10.37,2013-05-20 22:38:00,
2013-05-20 18:43:00,66.8,53.8,29.96,NW,320,1.1,0.0,63,0.00,OVC,,0.04,WeatherDisplay:10.37,2013-05-20 22:43:00,
2013-05-20 18:48:00,67.1,54.1,29.96,NW,320,0.0,0.0,63,0.00,OVC,,0.04,WeatherDisplay:10.37,2013-05-20 22:48:00,
2013-05-20 18:53:00,66.8,53.8,29.96,NW,320,0.0,0.0,63,0.00,OVC,,0.04,WeatherDisplay:10.37,2013-05-20 22:53:00,
2013-05-20 18:58:00,66.6,53.6,29.96,NW,320,0.0,0.0,63,0.00,OVC,,0.04,WeatherDisplay:10.37,2013-05-20 22:58:00,
2013-05-20 19:03:00,66.5,55.6,29.96,NW,320,0.0,0.0,68,0.00,BKN,,0.04,WeatherDisplay:10.37,2013-05-20 23:03:00,
2013-05-20 19:08:00,66.4,55.5,29.96,NW,320,0.0,0.1,68,0.00,BKN,,0.04,WeatherDisplay:10.37,2013-05-20 23:08:00,
2013-05-20 19:13:00,66.4,55.5,29.96,NW,320,0.0,0.0,68,0.00,BKN,,0.04,WeatherDisplay:10.37,2013-05-20 23:13:00,
2013-05-20 19:18:00,66.1,55.2,29.96,NW,320,0.0,0.0,68,0.00,BKN,,0.04,WeatherDisplay:10.37,2013-05-20 23:18:00,
2013-05-20 19:23:00,65.9,55.0,29.96,NW,320,0.0,0.0,68,0.00,BKN,,0.04,WeatherDisplay:10.37,2013-05-20 23:23:00,
2013-05-20 19:28:00,65.8,54.9,29.96,NW,320,0.0,0.0,68,0.00,BKN,,0.04,WeatherDisplay:10.37,2013-05-20 23:28:00,
2013-05-20 19:33:00,65.5,54.7,29.96,NW,320,0.0,0.0,68,0.00,BKN,,0.04,WeatherDisplay:10.37,2013-05-20 23:33:00,
2013-05-20 19:38:00,65.9,55.0,29.96,NW,320,0.0,0.0,68,0.00,BKN,,0.04,WeatherDisplay:10.37,2013-05-20 23:38:00,
2013-05-20 19:43:00,65.5,54.7,29.96,NW,320,0.0,0.0,68,0.00,BKN,,0.04,WeatherDisplay:10.37,2013-05-20 23:43:00,
2013-05-20 19:48:00,65.9,55.0,29.96,NW,320,0.0,0.0,68,0.00,BKN,,0.04,WeatherDisplay:10.37,2013-05-20 23:48:00,
2013-05-20 19:53:00,65.4,54.6,29.96,NW,320,0.0,0.0,68,0.00,BKN,,0.04,WeatherDisplay:10.37,2013-05-20 23:53:00,
2013-05-20 19:58:00,65.3,54.5,29.96,NW,320,0.0,0.0,68,0.00,BKN,,0.04,WeatherDisplay:10.37,2013-05-20 23:58:00,
2013-05-20 20:03:00,65.4,54.6,29.96,NW,320,0.0,0.0,68,0.00,BKN,,0.04,WeatherDisplay:10.37,2013-05-21 00:03:00,
2013-05-20 20:08:00,64.8,54.0,29.96,NW,320,0.0,0.0,68,0.00,BKN,,0.04,WeatherDisplay:10.37,2013-05-21 00:08:00,
2013-05-20 20:13:00,64.8,55.9,29.97,NW,320,0.0,0.0,73,0.00,CLR,,0.04,WeatherDisplay:10.37,2013-05-21 00:13:00,
2013-05-20 20:18:00,64.4,55.6,29.97,NW,320,0.0,0.0,73,0.00,CLR,,0.04,WeatherDisplay:10.37,2013-05-21 00:18:00,
2013-05-20 20:23:00,64.0,55.2,29.97,NW,320,0.0,0.0,73,0.00,CLR,,0.04,WeatherDisplay:10.37,2013-05-21 00:23:00,
2013-05-20 20:28:00,64.8,55.9,29.97,NW,320,0.0,0.0,73,0.00,CLR,,0.04,WeatherDisplay:10.37,2013-05-21 00:28:00,
2013-05-20 20:33:00,64.4,55.6,29.97,NW,320,0.0,0.0,73,0.00,CLR,,0.04,WeatherDisplay:10.37,2013-05-21 00:33:00,
2013-05-20 20:38:00,64.0,55.2,29.97,NW,320,0.0,0.0,73,0.00,CLR,,0.04,WeatherDisplay:10.37,2013-05-21 00:38:00,
2013-05-20 20:43:00,64.6,55.7,29.97,NW,320,0.0,0.0,73,0.00,CLR,,0.04,WeatherDisplay:10.37,2013-05-21 00:43:00,
2013-05-20 20:48:00,64.6,55.7,29.97,NW,320,0.0,0.0,73,0.00,CLR,,0.04,WeatherDisplay:10.37,2013-05-21 00:48:00,
2013-05-20 20:53:00,64.1,55.3,29.97,NW,320,0.0,0.0,73,0.00,CLR,,0.04,WeatherDisplay:10.37,2013-05-21 00:53:00,
2013-05-20 20:58:00,63.8,55.0,29.97,NW,320,0.0,0.0,73,0.00,CLR,,0.04,WeatherDisplay:10.37,2013-05-21 00:58:00,
2013-05-20 21:03:00,65.1,56.2,29.97,NW,320,0.0,0.0,73,0.00,CLR,,0.04,WeatherDisplay:10.37,2013-05-21 01:03:00,
2013-05-20 21:08:00,64.6,55.7,29.97,NW,320,0.0,0.0,73,0.00,CLR,,0.04,WeatherDisplay:10.37,2013-05-21 01:08:00,
2013-05-20 21:13:00,62.4,56.5,29.97,NW,320,0.0,0.0,81,0.00,CLR,,0.04,WeatherDisplay:10.37,2013-05-21 01:13:00,
2013-05-20 21:18:00,61.5,55.6,29.97,NW,320,0.0,0.0,81,0.00,CLR,,0.04,WeatherDisplay:10.37,2013-05-21 01:18:00,
2013-05-20 21:23:00,62.6,56.7,29.97,NW,320,0.0,0.0,81,0.00,CLR,,0.04,WeatherDisplay:10.37,2013-05-21 01:23:00,
2013-05-20 21:28:00,62.1,56.2,29.97,NW,320,0.0,0.0,81,0.00,CLR,,0.04,WeatherDisplay:10.37,2013-05-21 01:28:00,
2013-05-20 21:33:00,61.9,56.0,29.97,NW,320,0.0,0.0,81,0.00,CLR,,0.04,WeatherDisplay:10.37,2013-05-21 01:33:00,
2013-05-20 21:38:00,62.0,56.1,29.97,NW,320,0.0,0.0,81,0.00,CLR,,0.04,WeatherDisplay:10.37,2013-05-21 01:38:00,
2013-05-20 21:43:00,61.7,55.8,29.97,NW,320,0.0,0.0,81,0.00,CLR,,0.04,WeatherDisplay:10.37,2013-05-21 01:43:00,
2013-05-20 21:48:00,61.2,55.3,29.97,NW,320,0.0,0.0,81,0.00,CLR,,0.04,WeatherDisplay:10.37,2013-05-21 01:48:00,
2013-05-20 21:53:00,61.0,55.1,29.97,NW,320,0.0,0.0,81,0.00,CLR,,0.04,WeatherDisplay:10.37,2013-05-21 01:53:00,
2013-05-20 21:58:00,60.8,54.9,29.97,NW,320,0.0,0.0,81,0.00,CLR,,0.04,WeatherDisplay:10.37,2013-05-21 01:58:00,
2013-05-20 22:03:00,60.3,54.4,29.97,NW,320,0.0,0.0,81,0.00,CLR,,0.04,WeatherDisplay:10.37,2013-05-21 02:03:00,
2013-05-20 22:08:00,60.3,54.4,29.97,NW,320,0.0,0.0,81,0.00,CLR,,0.04,WeatherDisplay:10.37,2013-05-21 02:08:00,
2013-05-20 22:13:00,60.6,58.6,29.98,NW,320,0.0,0.0,93,0.00,CLR,,0.04,WeatherDisplay:10.37,2013-05-21 02:13:00,
2013-05-20 22:18:00,59.8,57.8,29.98,NW,320,0.0,0.0,93,0.00,CLR,,0.04,WeatherDisplay:10.37,2013-05-21 02:18:00,
2013-05-20 22:23:00,59.9,57.9,29.98,NW,320,0.0,0.0,93,0.00,CLR,,0.04,WeatherDisplay:10.37,2013-05-21 02:23:00,
2013-05-20 22:28:00,58.8,56.8,29.98,NW,320,0.0,0.0,93,0.00,CLR,,0.04,WeatherDisplay:10.37,2013-05-21 02:28:00,
2013-05-20 22:33:00,59.2,57.2,29.98,NW,320,0.0,0.0,93,0.00,CLR,,0.04,WeatherDisplay:10.37,2013-05-21 02:33:00,
2013-05-20 22:38:00,59.5,57.5,29.98,NW,320,0.0,0.0,93,0.00,CLR,,0.04,WeatherDisplay:10.37,2013-05-21 02:38:00,
2013-05-20 22:43:00,59.2,57.2,29.98,NW,320,0.0,0.0,93,0.00,CLR,,0.04,WeatherDisplay:10.37,2013-05-21 02:43:00,
2013-05-20 22:48:00,58.9,56.9,29.98,NW,320,0.0,0.0,93,0.00,CLR,,0.04,WeatherDisplay:10.37,2013-05-21 02:48:00,
2013-05-20 22:53:00,59.3,57.3,29.98,NW,320,0.0,0.0,93,0.00,CLR,,0.04,WeatherDisplay:10.37,2013-05-21 02:53:00,
2013-05-20 22:58:00,58.2,56.2,29.98,NW,320,0.0,0.0,93,0.00,CLR,,0.04,WeatherDisplay:10.37,2013-05-21 02:58:00,
2013-05-20 23:03:00,58.7,57.6,29.98,NW,320,0.0,0.0,96,0.00,CLR,,0.04,WeatherDisplay:10.37,2013-05-21 03:03:00,
2013-05-20 23:08:00,57.8,56.7,29.98,NW,320,0.0,0.0,96,0.00,CLR,,0.04,WeatherDisplay:10.37,2013-05-21 03:08:00,
2013-05-20 23:13:00,58.0,56.9,29.98,NW,320,0.0,0.0,96,0.00,CLR,,0.04,WeatherDisplay:10.37,2013-05-21 03:13:00,
2013-05-20 23:18:00,58.7,57.6,29.98,NW,320,0.0,0.0,96,0.00,CLR,,0.04,WeatherDisplay:10.37,2013-05-21 03:18:00,
2013-05-20 23:23:00,58.3,57.2,29.98,NW,320,0.0,0.0,96,0.00,CLR,,0.04,WeatherDisplay:10.37,2013-05-21 03:23:00,
2013-05-20 23:28:00,57.9,56.8,29.98,NW,320,0.0,0.0,96,0.00,CLR,,0.04,WeatherDisplay:10.37,2013-05-21 03:28:00,
2013-05-20 23:33:00,57.7,56.6,29.98,NW,320,0.0,0.0,96,0.00,CLR,,0.04,WeatherDisplay:10.37,2013-05-21 03:33:00,
2013-05-20 23:38:00,58.1,57.0,29.98,NW,320,0.0,0.0,96,0.00,CLR,,0.04,WeatherDisplay:10.37,2013-05-21 03:38:00,
2013-05-20 23:43:00,56.2,55.1,29.98,NW,320,0.0,0.0,96,0.00,CLR,,0.04,WeatherDisplay:10.37,2013-05-21 03:43:00,
2013-05-20 23:48:00,56.4,55.3,29.98,NW,320,0.0,0.0,96,0.00,CLR,,0.04,WeatherDisplay:10.37,2013-05-21 03:48:00,
2013-05-20 23:53:00,56.0,54.9,29.98,NW,320,0.0,0.0,96,0.00,CLR,,0.04,WeatherDisplay:10.37,2013-05-21 03:53:00,
2013-05-20 23:58:00,56.7,55.6,29.98,NW,320,0.0,0.0,96,0.00,CLR,,0.04,WeatherDisplay:10.37,2013-05-21 03:58:00,